TimeAST,TemperatureF,Dew PointF,Humidity,Sea Level PressureIn,VisibilityMPH,Wind Direction,Wind SpeedMPH,Gust SpeedMPH,PrecipitationIn,Events,Conditions,WindDirDegrees,DateUTC
12:00 AM,75.2,71.6,89,30.04,6.2,NNE,5.8,-,N/A,,Scattered Clouds,20,2012-10-04 04:00:00
1:00 AM,75.2,71.6,89,30.04,6.2,NNE,5.8,-,N/A,,Scattered Clouds,20,2012-10-04 05:00:00
2:00 AM,74,71,86,30.02,10,North,6.7,,,,Partly Cloudy,10,2012-10-04 06:00:00
2:00 AM,73.4,69.8,88,30.01,6.2,North,5.8,-,N/A,,Scattered Clouds,10,2012-10-04 06:00:00
3:00 AM,73.4,69.8,88,30.01,6.2,North,4.6,-,N/A,,Partly Cloudy,10,2012-10-04 07:00:00
4:00 AM,73.4,69.8,88,29.98,6.2,North,5.8,-,N/A,,Partly Cloudy,10,2012-10-04 08:00:00
5:00 AM,72,70,93,29.99,10,North,6.7,,,,Scattered Clouds,10,2012-10-04 09:00:00
5:00 AM,73.4,69.8,88,29.98,6.2,North,6.9,-,N/A,,Partly Cloudy,10,2012-10-04 09:00:00
6:00 AM,73.4,69.8,88,29.98,6.2,North,6.9,-,N/A,,Partly Cloudy,10,2012-10-04 10:00:00
7:00 AM,73.4,69.8,88,29.98,6.2,North,6.9,-,N/A,,Partly Cloudy,10,2012-10-04 11:00:00
8:00 AM,74,71,89,30.03,10,North,8.9,,,,Scattered Clouds,10,2012-10-04 12:00:00
8:00 AM,75.2,71.6,89,30.01,6.2,North,8.1,-,N/A,,Partly Cloudy,10,2012-10-04 12:00:00
9:00 AM,80.6,73.4,79,30.04,6.2,NNE,6.9,-,N/A,,Partly Cloudy,20,2012-10-04 13:00:00
10:00 AM,84.2,75.2,74,30.01,6.2,NNE,8.1,-,N/A,,Scattered Clouds,30,2012-10-04 14:00:00
11:00 AM,87,72,52,30.03,10,ENE,8.9,,,,Partly Cloudy,70,2012-10-04 15:00:00
11:00 AM,87.8,71.6,58,30.01,6.2,ENE,9.2,-,N/A,,Scattered Clouds,70,2012-10-04 15:00:00
12:00 PM,87.8,69.8,55,30.01,6.2,East,6.9,-,N/A,,Scattered Clouds,80,2012-10-04 16:00:00
1:00 PM,89.6,68.0,49,29.98,6.2,NE,9.2,-,N/A,,Scattered Clouds,40,2012-10-04 17:00:00
2:00 PM,91.4,68.0,46,29.92,6.2,NE,5.8,-,N/A,,Mostly Cloudy,40,2012-10-04 18:00:00
3:00 PM,89.6,68.0,49,29.92,6.2,South,6.9,-,N/A,,Mostly Cloudy,180,2012-10-04 19:00:00
4:00 PM,86.0,77.0,74,29.89,3.7,SE,4.6,-,N/A,Rain,Rain,140,2012-10-04 20:00:00
4:05 PM,-9999,-9999,N/A,29.92,2.5,East,10.4,-,N/A,Rain,Heavy Rain,90,2012-10-04 20:05:00
5:00 PM,79,76,87,29.91,10,Calm,Calm,,,,Partly Cloudy,,2012-10-04 21:00:00
5:00 PM,78.8,75.2,89,29.89,6.2,Calm,Calm,-,N/A,,Scattered Clouds,0,2012-10-04 21:00:00
6:00 PM,80.6,75.2,84,29.92,6.2,Calm,Calm,-,N/A,,Scattered Clouds,0,2012-10-04 22:00:00
7:00 PM,80.6,77.0,89,29.92,6.2,ENE,6.9,-,N/A,,Scattered Clouds,60,2012-10-04 23:00:00
8:00 PM,80,76,83,29.94,10,NE,6.7,,,,Partly Cloudy,40,2012-10-05 00:00:00
8:00 PM,78.8,75.2,89,29.92,6.2,NE,6.9,-,N/A,,Partly Cloudy,40,2012-10-05 00:00:00
9:00 PM,77.0,73.4,89,29.95,6.2,NNE,6.9,-,N/A,,Partly Cloudy,20,2012-10-05 01:00:00
10:00 PM,75.2,71.6,89,29.95,6.2,NNE,4.6,-,N/A,,Partly Cloudy,30,2012-10-05 02:00:00
11:00 PM,75.2,71.6,89,29.95,6.2,NNE,4.6,-,N/A,,Partly Cloudy,20,2012-10-05 03:00:00